Location: Monrovia
(34.7865°N, 86.7139°W)
Time: 21:50:02
(UTC+00:00)

Thor Agena Rocket - Pass Details

Date: 14 July 2020
Orbit: 759 x 808 km, 99.0° (Epoch: 08 August)

Event Time Altitude Azimuth Distance (km) Brightness Sun altitude
Rises 04:16:26 0° 16° (NNE) 3,232 7.4 -29.1°
Reaches altitude 10° 04:18:46 10° 20° (NNE) 2,299 6.5 -29.3°
Enters shadow 04:22:13 42° 37° (NE) 1,068 4.3 -29.6°
